Location: Fontevrault
(47.1823°N, 0.0493°E)
Time: 10:02:30
(UTC+00:00)

Cosmos 1378 Rocket - Pass Details

Date: 16 June 2021
Orbit: 601 x 627 km, 82.5° (Epoch: 03 August)

Event Time Altitude Azimuth Distance (km) Brightness Sun altitude
Rises 20:33:58 0° 189° (S) 2,851 6.6 -5.5°
Reaches altitude 10° 20:36:09 10° 190° (S) 1,956 5.8 -5.8°
Maximum altitude 20:40:29 83° 278° (W) 623 3.7 -6.3°
Drops below altitude 10° 20:44:54 10° 8° (N) 1,989 6.7 -6.8°
Sets 20:47:09 0° 9° (N) 2,903 7.6 -7.1°
